7 * 24
多渠道服务支持
STARLINK-32553是美国SpaceX星链计划的卫星,于2024年11月24日发射入轨,隶属于Starlink Gen2系列。该卫星旨在为全球提供低延迟、高速率的卫星互联网服务,覆盖偏远地区与网络基础设施匮乏区域。作为星链星座扩容的一环,它进一步完善了低轨卫星组网,推动全球全域互联覆盖能力提升。
美国
(US)
| 数据来源 | 国际轨道数据 |
| 星历时间: | 2026-09-12T01:59:24+0800 10小时前 查看轨道信息 |
| 半长轴: | 6840.818km |
| 偏心率: | 0.0000933 |
| 轨道倾角: | 53.160° |
| 近地点辐角 | 89.253° |
| 升交点赤经 | 46.428° |
| 平近点角 | 270.858° |
| 近地点: | 462.042km |
| 远地点: | 463.32km |
| 周期: | 93.847分钟 |
| 每日圈数: | 15.344077 |